Beatrice, NE

7:42 PM CDT on August 17, 2017 (GMT -0500)
Beatrice Municipal

Weather History for KBIE - March, 2014

Change the Weather History Date:

Saturday, March 22, 2014

  Actual Average Record
Temperature  
Mean Temperature 28 °F -  
Max Temperature 33 °F 54 °F 78 °F (2011)
Min Temperature 24 °F 29 °F 6 °F (2002)
Degree Days  
Heating Degree Days 36    
Moisture  
Dew Point 13 °F    
Average Humidity 55    
Maximum Humidity 79    
Minimum Humidity 28    
Precipitation  
Precipitation 0.00 in - - ()
Sea Level Pressure  
Sea Level Pressure 30.37 in    
Wind  
Wind Speed 15 mph (North)    
Max Wind Speed 21 mph    
Max Gust Speed 28 mph    
Visibility 10 miles    
Events Snow    
Averages and records for this station are not official NWS values.
T = Trace of Precipitation, MM = Missing Value Source: NWS Daily Summary

Daily Weather History Graph

Daily Weather History Graph

Search for Another Location

Airport or City:

Trip Planner

Search our weather history database for the weather conditions in past years. The results will help you decide how hot, cold, wet, or windy it might be!

Date:

Astronomy

Mar. 22, 2014 Rise Set
Actual Time 7:27 AM CDT 7:41 PM CDT
Civil Twilight 6:59 AM CDT 8:08 PM CDT
Nautical Twilight 6:28 AM CDT 8:40 PM CDT
Astronomical Twilight 5:55 AM CDT 9:12 PM CDT
Moon 1:02 AM CDT (3/22) 11:10 AM CDT (3/22)
Length of Visible Light 13h 08m
Length of Day
12h 14m
Waning Gibbous, 65% of the Moon is Illuminated
Mar 22
Waning Gibbous
Mar 23
Last Quarter
Mar 30
New
Apr 7
First Quarter
Apr 15
Full

Hourly Weather History & Observations

Time (CDT) Temp. Windchill Dew Point Humidity Pressure Visibility Wind Dir Wind Speed Gust Speed Precip Events Conditions
12:10 AM 33.8 °F 22.8 °F 21.9 °F 62% 30.25 in 10.0 mi North 18.4 mph 25.3 mph N/A   Clear
12:30 AM 32.5 °F 22.7 °F 21.2 °F 63% 30.25 in 10.0 mi North 13.8 mph - N/A   Clear
12:55 AM 32.0 °F 22.5 °F 21.4 °F 65% 30.25 in 10.0 mi North 12.7 mph - N/A   Clear
1:15 AM 31.1 °F 21.4 °F 21.6 °F 68% 30.26 in 10.0 mi North 12.7 mph - N/A   Clear
1:35 AM 30.7 °F 20.9 °F 21.4 °F 68% 30.26 in 10.0 mi North 12.7 mph - N/A   Clear
1:55 AM 29.7 °F 19.1 °F 21.6 °F 72% 30.27 in 10.0 mi North 13.8 mph - N/A   Clear
2:15 AM 29.1 °F 17.1 °F 21.4 °F 73% 30.29 in 10.0 mi North 17.3 mph 24.2 mph N/A   Clear
2:35 AM 27.9 °F 18.4 °F 19.9 °F 72% 30.30 in 10.0 mi North 10.4 mph 21.9 mph N/A   Clear
2:55 AM 27.3 °F 15.2 °F 19.4 °F 72% 30.31 in 10.0 mi North 16.1 mph 20.7 mph N/A   Clear
3:15 AM 26.1 °F 14.5 °F 19.4 °F 76% 30.30 in 10.0 mi North 13.8 mph - N/A   Clear
3:35 AM 27.0 °F 15.2 °F 18.5 °F 70% 30.29 in 10.0 mi North 15.0 mph 23.0 mph N/A   Clear
3:55 AM 26.6 °F 14.3 °F 18.5 °F 71% 30.30 in 10.0 mi North 16.1 mph 21.9 mph N/A   Clear
4:15 AM 26.4 °F 14.5 °F 18.5 °F 72% 30.30 in 10.0 mi North 15.0 mph 20.7 mph N/A   Clear
4:35 AM 25.9 °F 13.8 °F 18.3 °F 73% 30.30 in 10.0 mi North 15.0 mph 23.0 mph N/A   Clear
4:55 AM 25.7 °F 14.6 °F 18.0 °F 73% 30.30 in 10.0 mi North 12.7 mph - N/A   Clear
5:15 AM 25.5 °F 14.3 °F 17.6 °F 72% 30.30 in 10.0 mi North 12.7 mph - N/A   Clear
5:35 AM 25.5 °F 13.8 °F 16.9 °F 70% 30.31 in 10.0 mi North 13.8 mph - N/A   Clear
5:55 AM 25.9 °F 12.9 °F 16.5 °F 68% 30.30 in 10.0 mi North 17.3 mph - N/A   Scattered Clouds
6:15 AM 26.2 °F 12.6 °F 14.5 °F 61% 30.31 in 10.0 mi North 19.6 mph 27.6 mph N/A   Mostly Cloudy
6:35 AM 26.2 °F 13.4 °F 14.0 °F 60% 30.32 in 10.0 mi North 17.3 mph - N/A   Overcast
6:55 AM 26.1 °F 13.1 °F 12.6 °F 57% 30.33 in 10.0 mi North 17.3 mph 24.2 mph N/A   Overcast
7:15 AM 25.2 °F 12.0 °F 12.2 °F 58% 30.34 in 10.0 mi North 17.3 mph - N/A   Mostly Cloudy
7:35 AM 24.6 °F 14.4 °F 12.9 °F 61% 30.35 in 10.0 mi North 10.4 mph 17.3 mph N/A   Scattered Clouds
7:55 AM 24.4 °F 13.0 °F 12.7 °F 61% 30.35 in 10.0 mi North 12.7 mph - N/A   Scattered Clouds
8:15 AM 24.6 °F 11.3 °F 12.6 °F 60% 30.36 in 10.0 mi North 17.3 mph - N/A   Mostly Cloudy
8:35 AM 25.0 °F 12.2 °F 12.9 °F 60% 30.37 in 10.0 mi North 16.1 mph 20.7 mph N/A   Overcast
8:55 AM 25.5 °F 12.4 °F 13.1 °F 59% 30.37 in 10.0 mi North 17.3 mph - N/A   Scattered Clouds
9:15 AM 26.2 °F 12.2 °F 13.8 °F 59% 30.38 in 10.0 mi North 20.7 mph - N/A   Scattered Clouds
9:35 AM 25.5 °F 12.4 °F 12.4 °F 58% 30.39 in 10.0 mi North 17.3 mph - N/A   Scattered Clouds
9:55 AM 26.1 °F 14.5 °F 12.9 °F 58% 30.40 in 10.0 mi NNE 13.8 mph - N/A   Mostly Cloudy
10:15 AM 27.0 °F 14.3 °F 12.6 °F 55% 30.40 in 10.0 mi North 17.3 mph - N/A   Mostly Cloudy
10:35 AM 27.0 °F 15.2 °F 12.4 °F 54% 30.41 in 10.0 mi North 15.0 mph - N/A   Scattered Clouds
10:55 AM 27.9 °F 16.8 °F 11.3 °F 50% 30.41 in 10.0 mi North 13.8 mph 18.4 mph N/A   Scattered Clouds
11:15 AM 29.1 °F 20.0 °F 10.8 °F 46% 30.41 in 10.0 mi NNE 10.4 mph 17.3 mph N/A   Scattered Clouds
11:35 AM 30.2 °F 19.8 °F 9.3 °F 42% 30.40 in 10.0 mi NNE 13.8 mph 19.6 mph N/A   Scattered Clouds
11:55 AM 31.3 °F 19.9 °F 7.7 °F 37% 30.40 in 10.0 mi NNE 17.3 mph 21.9 mph N/A   Mostly Cloudy
12:15 PM 31.6 °F 19.7 °F 7.5 °F 36% 30.39 in 10.0 mi North 19.6 mph 25.3 mph N/A   Overcast
12:55 PM 32.5 °F 21.9 °F 6.1 °F 33% 30.38 in 10.0 mi NNE 16.1 mph - N/A   Mostly Cloudy
1:15 PM 33.4 °F 23.1 °F 6.3 °F 32% 30.38 in 10.0 mi NNE 16.1 mph 23.0 mph N/A   Overcast
1:35 PM 32.5 °F 21.5 °F 5.0 °F 31% 30.38 in 10.0 mi NNE 17.3 mph 25.3 mph N/A   Overcast
1:55 PM 33.3 °F 22.8 °F 4.6 °F 30% 30.38 in 10.0 mi NNE 16.1 mph 21.9 mph N/A   Overcast
2:15 PM 33.8 °F 25.3 °F 5.7 °F 31% 30.39 in 10.0 mi North 11.5 mph 18.4 mph N/A   Overcast
2:35 PM 33.8 °F 25.8 °F 5.0 °F 30% 30.39 in 10.0 mi North 10.4 mph - N/A   Overcast
2:55 PM 33.4 °F 25.9 °F 3.9 °F 29% 30.39 in 10.0 mi North 9.2 mph 18.4 mph N/A   Overcast
3:15 PM 33.6 °F 24.1 °F 4.1 °F 29% 30.39 in 10.0 mi NNE 13.8 mph 19.6 mph N/A   Overcast
3:35 PM 33.1 °F 24.9 °F 3.6 °F 29% 30.38 in 10.0 mi NNE 10.4 mph 18.4 mph N/A   Overcast
3:55 PM 33.6 °F 27.5 °F 3.9 °F 29% 30.37 in 10.0 mi North 6.9 mph 18.4 mph N/A   Overcast
4:15 PM 33.3 °F 23.2 °F 3.2 °F 28% 30.37 in 10.0 mi NNE 15.0 mph 21.9 mph N/A   Overcast
4:35 PM 32.9 °F 28.5 °F 4.1 °F 30% 30.37 in 10.0 mi NNE 4.6 mph 21.9 mph N/A   Overcast
4:55 PM 32.5 °F 20.8 °F 3.0 °F 29% 30.38 in 10.0 mi NNE 19.6 mph - N/A   Overcast
5:15 PM 32.0 °F 20.5 °F 5.5 °F 33% 30.39 in 10.0 mi North 18.4 mph 24.2 mph N/A   Overcast
5:35 PM 29.8 °F 18.4 °F 12.6 °F 49% 30.40 in 10.0 mi NNE 16.1 mph 21.9 mph N/A   Overcast
5:55 PM 28.4 °F 17.5 °F 15.8 °F 59% 30.40 in 7.0 mi NNE 13.8 mph 19.6 mph N/A   Overcast
6:15 PM 27.5 °F 15.0 °F 17.6 °F 66% 30.40 in 4.0 mi North 17.3 mph 20.7 mph N/A Snow Light Snow
6:35 PM 26.6 °F 13.4 °F 20.1 °F 77% 30.41 in 2.0 mi North 18.4 mph 23.0 mph N/A Snow Light Snow
6:55 PM 26.1 °F 16.2 °F 20.5 °F 79% 30.41 in 3.0 mi North 10.4 mph - N/A Snow Light Snow
7:15 PM 26.4 °F 15.5 °F 20.1 °F 77% 30.41 in 4.0 mi North 12.7 mph - N/A Snow Light Snow
7:35 PM 26.6 °F 16.8 °F 18.9 °F 73% 30.41 in 7.0 mi North 10.4 mph - N/A   Overcast
7:55 PM 27.3 °F 15.6 °F 17.4 °F 66% 30.42 in 10.0 mi North 15.0 mph - N/A   Overcast
8:15 PM 27.9 °F 18.4 °F 16.3 °F 62% 30.42 in 10.0 mi North 10.4 mph - N/A   Overcast
8:35 PM 28.4 °F 19.7 °F 14.4 °F 56% 30.42 in 10.0 mi North 9.2 mph 16.1 mph N/A   Overcast
8:55 PM 28.8 °F 17.9 °F 12.0 °F 50% 30.44 in 10.0 mi North 13.8 mph 17.3 mph N/A   Overcast
9:15 PM 28.4 °F 18.0 °F 9.3 °F 45% 30.45 in 10.0 mi NNE 12.7 mph - N/A   Overcast
9:35 PM 28.4 °F 18.5 °F 8.2 °F 43% 30.47 in 10.0 mi NNE 11.5 mph 20.7 mph N/A   Overcast
9:55 PM 28.4 °F 18.0 °F 8.4 °F 43% 30.47 in 10.0 mi NNE 12.7 mph 18.4 mph N/A   Overcast
10:15 PM 27.9 °F 15.9 °F 10.9 °F 49% 30.48 in 10.0 mi North 16.1 mph - N/A   Overcast
10:35 PM 27.1 °F 17.5 °F 12.4 °F 54% 30.49 in 10.0 mi NNE 10.4 mph - N/A   Overcast
10:55 PM 26.2 °F 14.7 °F 14.4 °F 61% 30.50 in 10.0 mi North 13.8 mph 17.3 mph N/A   Overcast
11:15 PM 25.5 °F 14.3 °F 15.8 °F 67% 30.51 in 7.0 mi North 12.7 mph - N/A   Overcast
11:35 PM 24.8 °F 15.3 °F 16.7 °F 71% 30.52 in 10.0 mi North 9.2 mph - N/A   Overcast
11:55 PM 25.7 °F 20.1 °F 15.1 °F 64% 30.52 in 10.0 mi NNE 4.6 mph - N/A   Overcast